Location: Observatoire
(46.1952°N, 5.3391°E)
Time: 08:04:21
(UTC+01:00)

Explorer 7 - Pass Details

Date: 22 February 2026
Orbit: 430 x 541 km, 50.2° (Epoch: 9 March)

Event Time Altitude Azimuth Distance (km) Brightness Sun altitude
Rises 14:06:56 0° 230° (SW) 2,393 10.9 31.3°
Reaches altitude 10° 14:09:03 10° 225° (SW) 1,537 10.3 31.2°
Maximum altitude 14:12:25 51° 149° (SSE) 564 7.7 30.9°
Drops below altitude 10° 14:15:53 10° 72° (ENE) 1,588 8.9 30.7°
Sets 14:18:06 0° 68° (ENE) 2,483 9.8 30.5°
